Regional Weather Roundup
Issued by NWS

Current Version | Previous Version | Text Only | Print | Product List | Glossary On
Versions: 1 2 3 4 5 6 7 8 9 10 11 12 13 14 15 16 17 18 19 20 21 22 23 24 25 26 27 28 29 30 31 32 33 34 35 36 37 38 39 40 41 42 43 44 45 46 47 48 49 50
000
ASUS43 KTOP 280308
RWRKS

WEATHER ROUNDUP FOR KANSAS
NATIONAL WEATHER SERVICE GOODLAND KS
1000 PM CDT MON JUN 27 2016

NOTE:  "FAIR" INDICATES FEW OR NO CLOUDS BELOW 12,000 FEET WITH NO
SIGNIFICANT WEATHER AND/OR OBSTRUCTIONS TO VISIBILITY.

KSZ001>006-013>018-027>032-041>047-280400-
NORTHWEST KANSAS

CITY           SKY/WX    TMP DP  RH WIND       PRES   REMARKS
GOODLAND       PTCLDY    73  64  73 E12       30.24S
HAYS           MOCLDY    81  66  61 E7        30.16R
HILL CITY      CLOUDY    81  63  54 N9        30.19R
RUSSELL        CLOUDY    80  70  71 SE8       30.15R
$$

KSZ061>065-074>080-084>089-280400-
SOUTHWEST KANSAS

CITY           SKY/WX    TMP DP  RH WIND       PRES   REMARKS
DODGE CITY     CLOUDY    80  69  69 SE16      30.15F
ELKHART          N/A     78  61  55 NE17        N/A
GARDEN CITY    CLOUDY    71  59  65 SE3       30.15R
GREAT BEND     MOCLDY    81  66  61 SE7       30.15R
LIBERAL        MOCLDY    77  61  57 NE14G22   30.22S
PRATT          CLOUDY    79  65  63 E5        30.18R
$$

KSZ066>073-081>083-090>101-280400-
SOUTHEAST KANSAS

CITY           SKY/WX    TMP DP  RH WIND       PRES   REMARKS
CHANUTE        PTCLDY    82  72  71 E5        30.12R
COFFEYVILLE    PTCLDY    82  75  79 SE3       30.11R
HUTCHINSON     CLOUDY    79  68  69 CALM      30.14R
MEDICINE LODGE   N/A     83  69  62 SE6       30.14R
PARSONS        PTCLDY    78  74  87 CALM      30.13R
WICHITA INTL   MOCLDY    82  68  62 S3        30.14R
WICHITA JABRA  CLEAR     80  71  74 E5        30.14R
WICHITA MCCONL CLEAR     85  67  56 SE3       30.15R
WINFIELD       PTCLDY    82  71  69 CALM      30.14R
$$

KSZ007>012-019>026-033>040-048>060-102>105-280400-
NORTHEAST KANSAS

CITY           SKY/WX    TMP DP  RH WIND       PRES   REMARKS
CONCORDIA      PTCLDY    73  62  68 E3        30.14F
EMPORIA        CLEAR     78  69  73 S6        30.13R
LAWRENCE       MOCLDY    76  68  76 NE3       30.12R
MANHATTAN      CLOUDY    73  69  87 CALM      30.14R
MARYSVILLE     PTCLDY    73  70  88 CALM      30.15R
OLATHE IND     CLEAR     79  70  74 SE3       30.14R
OLATHE EXE     CLEAR     80  68  66 E5        30.14R
SALINA         PTCLDY    87  66  49 E14       30.12R
TOPEKA BILLARD   N/A     78  72  81 CALM      30.12R
TOPEKA FORBES  CLOUDY    79  70  74 CALM      30.13R
$$




USA.gov is the U.S. government's official web portal to all federal, state and local government web resources and services.